Location: Grust
(42.8833°N, 0.0333°W)
Time: 14:46:23
(UTC+00:00)

Cosmos 1300 - Pass Details

Date: 25 October 2020
Orbit: 511 x 513 km, 82.5° (Epoch: 24 November)

Event Time Altitude Azimuth Distance (km) Brightness Sun altitude
Rises 18:07:24 0° 190° (S) 2,614 6.5 -12.7°
Reaches altitude 10° 18:09:31 10° 192° (SSW) 1,733 5.6 -13.0°
Maximum altitude 18:13:19 77° 278° (W) 532 2.8 -13.7°
Drops below altitude 10° 18:17:10 10° 5° (N) 1,748 5.3 -14.4°
Sets 18:19:18 0° 7° (N) 2,640 6.2 -14.8°
